Regional Weather Roundup
Issued by NWS Mt. Holly, NJ

Home | Current Version | Previous Version | Text Only | Print | Product List | Glossary On
Versions: 1 2 3 4 5 6 7 8 9 10 11 12 13 14 15 16 17 18 19 20 21 22 23 24 25 26 27 28 29 30 31 32 33 34 35 36 37 38 39 40 41 42 43 44 45 46 47 48 49 50
000
ASUS41 KPHI 220910
RWRPHI

REGIONAL WEATHER ROUNDUP
NATIONAL WEATHER SERVICE MOUNT HOLLY NJ
500 AM EDT TUE JUL 22 2014

NOTE:  "FAIR" INDICATES FEW OR NO CLOUDS BELOW 12,000 FEET WITH NO
SIGNIFICANT WEATHER AND/OR OBSTRUCTIONS TO VISIBILITY.

 * = STATION DOES NOT REPORT PRECIPITATION (E.G. RAIN, SNOW, ETC.)
        OR FOG.

NJZ015>026-221000-
SOUTHERN NEW JERSEY

CITY           SKY/WX    TMP DP  RH WIND       PRES   REMARKS
POMONA         CLEAR     61  59  93 CALM      30.18R
RIO GRANDE*    CLEAR     64  61  88 CALM      30.19R
MILLVILLE      CLEAR     62  60  93 CALM      30.18S
WRIGHTSTOWN    CLEAR     63  60  90 CALM      30.16S
MOUNT HOLLY    CLEAR     62  60  93 CALM      30.18R
TRENTON        CLEAR     65  62  90 CALM      30.17S

$$
NJZ001>014-221000-
NORTHERN NEW JERSEY

CITY           SKY/WX    TMP DP  RH WIND       PRES   REMARKS
SUSSEX         CLEAR     64  61  90 CALM      30.17S
ANDOVER*         N/A     63  62  97 CALM      30.19R
MORRISTOWN     CLEAR     64  63  94 CALM      30.17R
NEWARK         PTCLDY    68  62  81 S5        30.16S
TETERBORO      CLEAR     70  61  73 CALM      30.15S
CALDWELL       CLEAR     68  64  87 CALM      30.18R
SOMERVILLE     CLEAR     63  60  90 CALM      30.16R
ALLAIRE*       CLEAR     64  57  77 W3        30.18R
TOMS RIVER*    CLEAR     61  57  88 CALM      30.18S

$$
PAZ043-044-047-054-055-060>062-066>071-221000-
EASTERN PENNSYLVANIA

CITY           SKY/WX    TMP DP  RH WIND       PRES   REMARKS
PHILADELPHIA   CLEAR     70  62  76 S3        30.18R
NORTH PHILA    CLEAR     67  59  75 CALM      30.19R
BLUE BELL      CLEAR     63  61  94 CALM      30.18R
DOYLESTOWN     CLEAR     64  61  90 CALM      30.18R
QUAKERTOWN*    PTCLDY    63  63 100 CALM      30.19S
POTTSTOWN      CLEAR     64  61  90 CALM      30.19S
LANCASTER      CLOUDY    69  66  90 E3        30.17S
COATESVILLE    CLEAR     64  64 100 CALM      30.19S
READING        PTCLDY    69  65  86 CALM      30.17R FOG
ALLENTOWN      CLEAR     65  62  90 N3        30.18R
MOUNT POCONO   PTCLDY    61  59  93 W3        30.22S FOG
HAZLETON       CLOUDY    63  61  94 CALM      30.24R FOG
WILKES BARRE   PTCLDY    66  62  87 E5        30.18S

$$
DEZALL-MDZ008-012-015-019-020-221000-
DELAWARE AND EASTERN MARYLAND

CITY           SKY/WX    TMP DP  RH WIND       PRES   REMARKS
WILMINGTON     MOCLDY    70  66  87 CALM      30.19R
DOVER          CLEAR     66  66 100 S2        30.16R
GEORGETOWN     PTCLDY    64  62  93 S7        30.18S
EASTON         CLEAR     70  70 100 CALM      30.20S
PATUXENT       MOCLDY    67  65  93 CALM      30.16S
OCEAN CITY     CLEAR     62  61  96 CALM      30.17R
WALLOPS ISLAND CLEAR     68  66  93 N3        30.17S
CAMBRIDGE      CLEAR     68  64  88 CALM      30.17R

$$
PAZ001-021-NYZ056-072-MDZ011-DCZ001-221000-
OTHER NEARBY LOCATIONS

CITY           SKY/WX    TMP DP  RH WIND       PRES   REMARKS
HARRISBURG     MOCLDY    73  66  78 CALM      30.16S
STATE COLLEGE  CLOUDY    68  66  93 CALM      30.18S
WILLIAMSPORT   CLOUDY    67  63  87 CALM      30.15S
BINGHAMTON     MOCLDY    66  64  93 S6        30.18S
NEW YORK CITY  CLEAR     71  60  68 W3        30.19S
BALTIMORE      PTCLDY    70  68  93 CALM      30.16S
WASHINGTON DC  MOCLDY    75  70  83 S6        30.17R

$$


USA.gov is the U.S. government's official web portal to all federal, state and local government web resources and services.